Theta_e
315 315 315 315 315 314 314 314 314 314 313 313 313 313 313 313 313 314 319 315 313 313 316 319 321 322 322 324 328 329 330 332 331 331 325 321 322 320 318 317 317 315 315 315 319
313 313 313 313 313 313 313 314 314 314 313 313 313 313 313 312 313 317 316 313 314 315 317 320 320 319 318 323 326 329 329 332 326 325 324 323 321 319 319 316 316 315 316 318 319
319 318 315 311 309 311 313 313 313 314 313 313 313 313 312 312 320 317 315 314 314 316 319 320 320 319 320 321 324 327 331 326 325 326 324 322 321 319 318 317 314 315 316 316 316
322 321 320 317 313 308 311 313 313 313 313 313 313 313 312 315 319 316 315 314 314 317 319 319 318 320 319 320 320 324 324 322 325 322 322 322 321 319 317 317 315 313 316 315 314
322 322 321 319 317 313 308 311 313 313 313 313 313 313 312 317 318 316 315 314 316 317 318 317 317 317 318 316 319 319 321 320 319 318 317 316 317 318 317 316 313 314 315 315 315
325 322 322 321 319 317 314 308 312 313 313 313 313 312 319 317 317 316 315 316 316 316 317 316 315 315 316 316 316 317 318 317 316 316 315 315 314 314 314 313 314 314 313 312 314
327 326 323 321 320 318 315 307 309 313 312 313 313 313 317 313 316 316 316 316 315 316 317 316 316 315 316 317 317 316 315 314 314 315 315 315 314 315 312 313 313 312 310 311 312
326 325 325 323 321 319 314 306 308 313 312 313 313 313 315 315 316 316 316 317 316 316 316 315 316 316 317 316 316 316 315 316 317 315 316 313 315 318 312 310 310 311 309 310 310
324 325 325 325 321 318 308 309 310 313 313 313 314 315 314 314 314 314 315 317 317 316 316 316 316 317 316 315 317 316 316 316 319 315 316 314 314 315 312 310 310 308 307 309 309
324 323 324 324 322 314 316 318 314 314 315 315 317 313 313 314 315 315 315 316 316 316 315 317 314 315 314 313 317 314 315 313 317 314 314 315 313 312 312 311 310 309 307 307 309
324 324 323 323 322 316 318 319 316 316 317 315 314 312 314 314 314 314 315 316 315 315 313 316 314 314 316 314 315 315 314 313 314 315 314 312 311 311 311 310 309 308 307 306 308
324 324 323 322 322 317 318 317 316 316 318 318 317 315 316 314 314 313 315 314 314 313 313 313 315 314 316 316 316 316 316 314 315 314 313 311 311 310 311 311 311 310 308 308 307
323 324 323 322 321 317 317 316 317 317 317 319 317 316 314 314 313 313 313 313 314 314 313 312 315 316 317 316 317 316 316 315 314 314 312 313 313 314 312 312 311 310 311 310 308
321 322 323 322 320 317 317 317 317 316 317 316 318 317 314 314 314 314 314 314 314 313 312 312 314 316 316 316 316 316 314 315 316 314 314 314 316 311 314 312 312 310 309 310 308
317 321 323 323 321 318 315 315 317 316 313 316 315 314 313 314 313 313 313 313 314 314 314 313 315 315 316 315 316 316 314 315 315 314 315 316 315 313 313 314 312 309 308 308 308
314 316 322 322 321 320 320 315 317 314 314 315 314 313 314 314 314 313 312 313 314 315 314 312 314 315 314 314 314 314 314 314 316 315 320 316 315 312 314 314 312 310 308 308 308
311 314 317 321 321 321 318 316 315 316 315 315 315 314 313 314 314 313 312 312 311 312 311 313 313 313 314 314 313 314 312 316 325 322 317 316 315 315 316 314 313 313 310 309 308
309 312 314 318 321 322 318 316 320 317 314 315 315 314 314 314 313 312 312 311 310 311 311 313 314 312 312 312 314 312 311 317 324 328 323 318 318 319 315 314 313 312 311 309 308
309 314 316 316 320 320 312 318 315 316 315 315 315 314 314 315 314 312 310 311 312 310 312 313 314 311 311 310 313 315 313 313 318 317 319 318 318 318 317 315 312 311 310 310 309
310 312 313 315 320 319 313 319 315 314 314 315 314 313 314 314 314 313 312 312 313 311 310 313 314 312 310 311 311 314 312 313 312 314 324 322 320 320 317 315 312 311 311 310 310
310 312 314 318 320 319 318 314 314 314 314 314 315 315 315 315 312 313 314 314 313 314 310 312 312 312 310 309 310 310 312 313 311 316 321 327 326 319 317 314 312 310 311 311 310
310 312 313 316 321 321 323 318 314 314 313 314 314 315 315 316 314 313 313 316 314 314 313 311 310 310 311 310 308 308 310 311 314 314 316 320 320 318 318 314 312 311 311 312 311
307 309 311 315 322 319 319 322 320 320 320 313 315 315 315 314 315 314 315 314 314 314 313 312 311 312 311 312 311 311 310 311 311 313 316 318 317 316 316 317 312 311 310 313 313
304 308 311 307 311 314 318 321 321 322 321 321 317 315 314 314 313 315 315 315 313 314 314 313 310 310 313 315 312 312 311 310 311 311 312 317 318 319 319 318 316 312 311 312 314
303 304 309 313 314 312 316 318 320 323 321 318 316 320 316 315 314 314 313 315 313 315 312 311 312 312 311 312 313 313 313 311 312 313 312 313 313 315 316 316 318 315 312 312 314
303 304 303 306 310 312 313 314 316 318 319 322 322 319 314 314 314 314 314 312 314 312 311 309 312 312 313 312 312 313 313 313 312 312 313 313 314 313 311 310 310 309 313 313 312
303 304 303 305 306 308 310 313 314 316 317 317 319 319 319 317 314 312 312 312 311 312 310 310 311 311 313 312 312 313 314 314 313 313 313 313 314 313 312 312 313 313 310 314 313
Wind_Speed
14 14 14 16 16 15 14 14 14 14 13 14 14 15 16 17 18 10 4 3 4 6 6 12 15 14 8 2 1 2 3 3 5 1 5 5 4 2 5 5 2 2 5 10 31
15 15 15 16 16 16 16 16 15 15 15 15 15 15 15 17 17 10 4 3 4 5 5 10 8 12 3 2 1 3 3 2 3 3 5 6 4 6 3 4 3 5 8 29 31
18 18 19 19 18 16 16 16 16 16 15 15 16 16 14 15 4 2 1 2 3 4 5 9 15 5 3 1 2 2 3 2 4 4 3 6 5 7 6 4 8 12 14 19 22
18 20 21 22 21 19 16 16 16 16 16 16 16 16 14 5 1 2 1 3 3 3 6 11 5 2 2 3 4 1 1 4 2 3 4 2 1 3 6 8 4 12 22 17 12
18 20 22 23 23 23 21 16 15 15 16 16 16 14 6 2 6 1 2 4 4 5 6 6 5 3 0 4 2 2 2 3 5 2 2 3 2 4 5 9 7 16 18 15 15
19 20 22 25 25 24 24 19 14 14 14 15 14 10 3 3 4 1 1 3 3 5 10 4 2 5 3 1 2 2 1 3 4 4 2 2 4 3 8 7 8 15 13 11 16
19 21 22 25 27 28 26 20 13 13 13 13 9 6 3 10 5 3 2 1 1 3 3 5 6 4 5 4 1 2 2 5 4 4 3 4 7 11 10 4 11 10 12 11 17
18 20 23 25 28 30 28 20 16 12 11 8 5 1 5 5 6 8 5 5 1 1 2 5 5 2 2 2 3 2 1 1 5 7 4 6 9 8 9 9 9 10 9 10 11
18 19 22 25 28 32 26 18 14 12 7 4 3 2 7 3 4 8 8 4 7 3 4 3 2 3 3 3 4 2 3 5 2 8 4 5 7 7 8 10 10 10 10 11 10
17 19 21 24 28 28 24 16 7 7 2 2 4 3 5 2 3 4 4 5 2 4 3 1 1 1 4 4 3 3 3 3 5 7 7 5 11 9 7 9 12 11 10 10 11
17 19 22 23 26 21 26 6 7 4 3 6 5 4 1 4 2 4 7 3 2 1 2 4 3 3 8 7 4 2 2 4 1 3 4 8 10 12 11 9 10 10 10 10 13
19 19 21 23 22 15 18 5 4 3 8 12 16 11 17 3 0 5 11 4 4 5 1 4 6 7 3 1 2 3 4 6 1 4 3 6 12 12 10 10 16 14 11 11 8
17 20 20 23 16 10 12 9 9 10 3 8 6 5 5 7 4 5 10 5 4 3 6 6 5 5 1 1 2 3 3 3 3 5 5 3 9 6 7 7 10 11 10 10 12
16 19 19 24 4 17 4 14 10 8 4 5 2 1 5 5 4 6 14 5 3 6 6 6 4 4 3 2 3 3 1 2 3 4 3 3 5 7 5 8 8 11 11 11 11
14 16 16 13 13 8 12 18 10 0 4 3 2 3 3 7 2 5 4 4 3 4 3 7 4 2 3 4 2 5 0 2 2 2 4 4 2 8 3 5 10 11 11 11 10
14 14 14 6 9 11 18 13 4 4 5 2 2 2 4 2 1 1 4 4 1 3 3 8 2 3 7 2 2 2 2 3 2 2 2 6 7 6 5 9 5 6 10 11 10
16 14 12 10 6 14 18 6 4 3 3 3 3 4 3 6 4 4 4 3 5 3 4 3 5 2 3 3 2 2 5 3 2 1 6 4 4 10 5 8 11 17 13 13 10
16 16 14 16 13 12 10 4 3 4 6 3 4 6 6 6 5 8 4 4 7 2 0 5 4 8 4 6 6 5 7 5 5 3 4 5 6 7 7 11 9 12 13 10 10
16 10 8 12 5 1 4 2 7 6 4 5 3 4 4 4 6 5 8 7 7 12 8 3 4 2 4 3 3 3 4 5 1 3 2 4 8 11 3 3 5 10 10 12 10
12 10 14 17 9 7 3 5 5 4 3 1 6 7 6 6 6 5 6 5 5 11 7 3 1 1 2 1 1 3 2 2 2 3 5 6 5 7 4 6 5 9 13 10 9
7 3 5 6 11 2 5 7 6 12 5 4 2 2 3 5 8 5 6 7 8 3 9 4 5 1 2 6 8 2 3 3 3 5 5 3 6 5 8 9 12 11 11 12 11
4 2 6 5 4 2 7 4 5 14 8 5 3 4 3 2 5 7 9 3 1 6 7 7 4 4 11 5 8 6 9 6 5 5 4 4 7 5 5 9 9 10 9 8 8
2 3 4 4 5 9 8 11 16 18 4 5 4 5 3 3 3 6 7 1 3 4 7 5 2 1 8 5 2 5 6 7 2 3 5 5 6 5 6 5 8 9 8 8 9
2 3 2 3 1 3 6 16 20 11 23 18 13 9 7 6 4 5 4 2 4 3 4 4 4 7 8 5 4 3 6 8 9 4 8 11 9 11 8 6 4 7 8 10 10
1 4 2 1 3 7 5 7 9 15 19 8 4 14 11 5 8 6 7 3 3 5 2 5 5 5 7 8 5 7 8 11 16 19 11 7 24 21 21 6 7 5 8 9 10
2 1 4 3 6 8 6 11 18 19 12 11 19 18 11 16 14 6 5 4 7 1 6 4 5 5 13 11 12 17 17 15 17 20 22 25 32 6 10 8 8 10 8 9 11
8 10 2 1 2 5 6 10 7 9 14 20 19 16 12 14 8 11 15 14 8 7 7 2 4 3 12 4 8 13 22 21 12 15 16 20 24 17 17 15 20 16 9 11 11
Wind_Direction
10 5 1 355 352 348 347 346 345 345 344 341 340 339 336 330 326 315 286 271 275 323 319 319 319 290 269 242 193 55 51 301 306 219 163 147 106 35 126 117 80 39 148 171 160
9 3 357 351 347 343 340 339 339 339 339 339 337 335 333 332 329 303 256 297 335 344 349 339 326 344 358 247 262 97 95 258 338 48 150 157 125 147 120 112 111 77 81 144 157
15 9 2 355 346 339 334 333 334 333 334 335 334 331 330 331 341 251 169 9 348 3 328 306 299 314 328 145 246 188 185 336 358 36 39 152 125 160 142 197 195 173 163 157 164
13 10 4 358 352 343 332 327 327 328 329 332 333 328 328 324 134 202 35 21 12 4 325 305 307 258 227 263 263 75 107 87 150 34 7 57 273 166 164 211 162 163 164 161 169
0 1 1 359 354 347 337 323 320 322 325 328 331 330 345 356 252 135 45 30 39 339 296 293 2 315 72 271 189 237 217 80 130 95 287 348 325 232 239 242 145 148 158 171 177
349 350 353 353 350 346 340 324 314 315 318 323 324 328 333 274 163 187 70 22 21 341 329 22 338 280 292 349 98 303 151 194 175 208 249 186 261 156 253 223 174 149 171 177 182
338 341 341 345 346 343 337 321 304 306 311 318 316 329 291 237 163 187 120 51 11 344 340 18 346 26 327 321 5 318 325 306 219 205 245 130 295 231 223 207 181 179 174 187 200
331 333 332 337 341 340 334 323 303 298 304 307 301 300 248 243 209 220 200 219 134 248 316 322 324 277 228 325 323 234 61 191 262 169 215 106 271 277 210 173 198 199 202 197 203
329 328 331 336 340 338 332 326 300 289 291 282 296 176 270 216 209 241 207 233 186 255 243 285 281 218 359 78 1 302 237 205 275 188 143 166 272 277 184 176 205 211 207 210 214
333 332 335 338 342 342 338 329 299 291 297 231 268 7 273 233 144 155 201 235 273 303 313 182 120 61 359 82 226 279 268 288 197 228 186 205 256 269 236 179 205 217 221 210 204
335 335 337 339 343 351 348 2 13 14 339 202 194 227 188 151 172 211 186 186 262 328 228 234 72 247 267 196 221 300 329 307 241 200 180 231 258 258 232 221 215 221 221 212 208
330 335 337 343 342 4 7 47 67 278 305 265 255 248 263 157 328 267 192 158 160 217 235 340 252 238 168 83 43 2 321 302 338 203 215 271 263 248 236 215 204 206 220 220 204
323 325 336 337 334 -0 32 44 351 339 263 284 218 216 187 147 237 243 147 181 197 240 256 181 242 172 184 315 359 330 253 264 239 321 275 318 293 267 249 198 203 213 207 209 196
326 320 331 341 355 341 80 349 350 341 9 277 171 300 113 101 271 212 194 174 230 209 242 233 208 162 180 240 168 289 295 343 328 38 257 102 286 302 232 210 199 200 201 212 204
320 322 320 341 313 340 331 324 336 321 344 161 141 302 88 145 206 1 355 65 230 237 49 251 169 177 226 224 163 219 270 274 286 307 357 300 134 268 157 215 211 213 210 212 206
324 326 316 332 314 347 326 320 334 47 258 139 121 157 111 218 62 66 22 27 240 279 225 225 185 185 195 105 77 160 334 0 19 90 318 238 165 274 198 209 205 214 215 213 204
323 315 304 286 278 332 338 345 63 163 306 175 183 156 182 199 199 167 161 200 191 123 255 315 220 165 132 126 18 86 59 336 345 344 230 313 154 250 257 239 195 199 205 209 196
325 313 295 272 280 307 340 55 179 228 252 160 131 151 181 160 236 185 171 213 255 227 302 188 301 159 196 176 185 179 158 167 233 226 279 338 238 254 237 236 209 185 190 183 190
330 328 290 270 262 258 66 152 204 215 296 150 121 178 220 218 177 149 206 209 218 186 188 210 250 64 65 23 122 209 187 194 170 301 22 244 284 301 227 53 165 168 161 183 186
339 311 270 274 218 184 92 237 242 295 3 144 194 176 195 205 169 160 200 220 223 194 183 246 73 41 342 11 239 154 213 85 357 235 253 280 268 239 254 218 188 174 183 191 184
313 306 285 251 211 159 210 229 261 277 315 347 308 277 302 185 177 196 221 277 195 204 177 196 135 268 64 209 189 115 264 215 165 167 193 288 266 221 234 223 194 201 197 185 184
302 272 331 217 193 232 229 224 270 297 318 284 272 212 230 301 216 214 210 231 193 146 164 209 158 189 214 246 196 175 189 165 136 253 233 158 273 272 300 224 206 202 199 197 183
280 241 305 154 230 222 254 261 244 270 267 292 269 210 222 279 340 217 234 288 138 175 168 179 217 337 322 346 345 206 211 207 156 90 223 158 259 291 339 342 207 200 209 202 199
331 311 293 48 17 342 275 253 251 252 243 254 263 304 311 276 206 277 6 329 321 136 107 93 195 181 195 204 141 198 219 209 193 199 228 232 278 282 296 345 111 219 220 206 201
208 259 293 272 253 250 279 304 287 260 247 280 290 234 242 280 271 261 268 193 265 219 142 156 230 225 247 255 228 224 217 210 211 224 218 245 238 246 269 248 304 278 234 206 210
224 222 346 306 318 296 255 254 262 273 274 273 254 256 272 241 241 285 287 248 209 75 176 197 232 216 260 271 281 275 251 230 216 223 239 251 259 244 262 289 285 275 261 242 214
211 257 116 257 336 327 274 289 274 285 260 267 279 291 281 266 269 256 241 253 229 182 202 236 189 172 255 268 294 279 245 240 217 217 211 230 248 245 253 249 259 262 225 244 229